Regional Weather Roundup
Issued by NWS

Home | Current Version | Previous Version | Text Only | Print | Product List | Glossary On
Versions: 1 2 3 4 5 6 7 8 9 10 11 12 13 14 15 16 17 18 19 20 21 22 23 24 25 26 27 28 29 30 31 32 33 34 35 36 37 38 39 40 41 42 43 44 45 46 47 48 49 50
000
ASUS43 KDTX 301710
RWRMI
MICHIGAN HOURLY REGIONAL WEATHER ROUNDUP
NATIONAL WEATHER SERVICE DETROIT/PONTIAC MI
100 PM EDT SUN APR 30 2017

NOTE: "FAIR" INDICATES FEW OR NO CLOUDS BELOW 12,000 FEET WITH NO
SIGNIFICANT WEATHER AND/OR OBSTRUCTION TO VISIBILITY.

MIZ047>049-052>055-059>063-066>070-074>076-081>083-301800-
SOUTHEAST LOWER MICHIGAN

CITY           SKY/WX    TMP DP  RH WIND       PRES   REMARKS
ADRIAN         LGT RAIN  49  48  97 E10       29.91F
ALMA           MIX PCPN  41  41  97 E17G23    29.97R
ANN ARBOR      LGT RAIN  48  46  93 NE7G16    29.93F FOG
BAD AXE        LGT RAIN  39  37  90 E10G17    30.01F WCI  32
CARO           LGT RAIN  40  38  95 E10       29.99F WCI  33
DETROIT CITY   LGT RAIN  48  45  89 E14       29.96F
DETROIT        CLOUDY    50  46  86 E10       29.94F
FLINT          LGT RAIN  41  40  96 E8        29.96F FOG
GROSSE ILE     CLOUDY    50  45  83 E9G17     29.93F
HILLSDALE      LGT RAIN  48  46  93 E9        29.88R
HOWELL         LGT RAIN  45  42  91 E8        29.92F

CITY           SKY/WX    TMP DP  RH WIND       PRES   REMARKS
JACKSON        LGT RAIN  48  46  93 SE14      29.90F
LAMBERTVILLE   CLOUDY    49  47  92 E9G16     29.91F
LANSING        LGT RAIN  45  41  86 E15       29.91F FOG
LAPEER         CLOUDY    41  39  93 E7        29.97F
MASON          LGT RAIN  45  44  97 E9        29.90F
MONROE         LGT RAIN  50  46  86 E8        29.93S
MT. CLEMENS    LGT RAIN  49  45  87 NE8       29.96F
PONTIAC        LGT RAIN  46  41  82 E12       29.93F
PORT HOPE        N/A     40  39  97 E22       30.04F WCI  30
PORT HURON     CLOUDY    48  41  76 E8        29.98F
TRI CITIES     RAIN      42  41  96 E17       30.00F FOG
MIDLAND        LGT RAIN  43  40  89 E16G23    29.99F
TROY           LGT RAIN  48  43  84 E10G16    29.96F
SAGINAW HB     LGT SNOW  41  37  87 E13       29.97F
$$
MIZ043>046-050>051-056>058-064>065-071>073-077>080-301800-
SOUTHWEST LOWER MICHIGAN

CITY           SKY/WX    TMP DP  RH WIND       PRES   REMARKS
BATTLE CREEK   CLOUDY    46  45  96 E10G21    29.86F
BENTON HARBOR  LGT RAIN  49  47  93 E12       29.80S FOG
BIG RAPIDS     MIX PCPN  40  37  90 E15       29.94S WCI  32
COLDWATER      CLOUDY    50  50 100 E7        29.86R FOG
FREMONT        LGT RAIN  42  40  94 E16G23    29.88F
HOLLAND        HVY RAIN  45  42  89 E18G28    29.85S FOG
GRAND RAPIDS   LGT RAIN  43  43 100 E15       29.88R FOG
IONIA          LGT RAIN  42  41  95 NE15G23   29.89F
KALAMAZOO      CLOUDY    48  44  86 E7        29.86R
LUDINGTON      LGT RAIN  42  40  95 E14G20    29.92S
MARSHALL       CLOUDY    46  46  98 E10G16    29.87F
MOUNT PLEASANT MIX PCPN  42  40  92 E13G21    29.98R
MUSKEGON       LGT RAIN  45  42  89 E20G26    29.86F
SOUTH HAVEN    LGT SNOW  47  46  97 E12G20    29.81S
$$
MIZ016>042-301800-
NORTHERN LOWER MICHIGAN

CITY           SKY/WX    TMP DP  RH WIND       PRES   REMARKS
ALPENA         LGT RAIN  37  36  96 E15G22    30.12F FOG     WCI  28
BEAVER ISLAND  CLOUDY    38  32  78 E14G26    30.12R WCI  30
BELLAIRE       CLOUDY    39  35  85 NE9       30.04F WCI  33
CADILLAC       LGT RAIN  39  38  95 E15G25    29.95F WCI  31
CHARLEVOIX     CLOUDY    40  35  80 NE12      30.09F WCI  33
FRANKFORT      CLOUDY    41  36  80 NE9       29.98S
GAYLORD        LGT RAIN  37  34  89 E9G18     30.03F WCI  30
GRAYLING       LGT RAIN  37  35  94 E17       30.02F WCI  27
HARBOR SPRINGS CLOUDY    37  35  90 E16G26    30.08F FOG     WCI  28
HOUGHTON LAKE  LGT RAIN  38  36  92 E20       30.00F FOG     WCI  28
MANISTEE       RAIN      43  40  89 E10       29.95S
OSCODA         LGT SNOW  39  37  93 E15G23    30.08F WCI  31
PELLSTON       CLOUDY    37  31  78 E17G28    30.11F WCI  27
ROGERS CITY    LGT SNOW  35  33  93 E17G23    30.15F WCI  25
TRAVERSE CITY  CLOUDY    42  36  79 NE9       30.00F
$$
MIZ007>008-015-301800-
EASTERN UPPER MICHIGAN

CITY           SKY/WX    TMP DP  RH WIND       PRES   REMARKS
KINROSS        CLOUDY    42  25  50 SE14G22   30.15S
MACKINAC ISLAN CLOUDY    37  31  77 E12G23    30.13F WCI  30
NEWBERRY       CLOUDY    46  29  52 E7        30.13R
S. S. MARIE    CLOUDY    48  26  42 SE8       30.14S
MUNISING         N/A     42  33  70 N9        30.10F
$$
MIZ004>006-011>014-085-301800-
CENTRAL UPPER MICHIGAN

CITY           SKY/WX    TMP DP  RH WIND       PRES   REMARKS
MANISTIQUE     CLOUDY    39  31  72 E14       30.12F WCI  31
ESCANABA       CLOUDY    43  30  60 E16       30.10F
MENOMINEE      CLOUDY    38  35  89 E23G32    30.06F WCI  27
SAWYER-GWINN   PTSUNNY   45  30  57 N14       30.09F
$$
MIZ001>003-009>011-084-301800-
WESTERN UPPER MICHIGAN

CITY           SKY/WX    TMP DP  RH WIND       PRES   REMARKS
IRON MOUNTAIN  CLOUDY    48  25  40 E9        30.06F
HOUGHTON       CLOUDY    43  29  57 E14G20    30.15R
COPPER HARBOR    N/A     42  31  64 E9G17     30.18F
IRONWOOD       CLOUDY    50  27  40 E13       30.09S
$$

ABBREVIATIONS USED IN REMARKS
   TC - TEMPERATURE IN CELSIUS
  WCI - WIND CHILL INDEX
   HX - HEAT INDEX
  VSB - VISIBILITY




USA.gov is the U.S. government's official web portal to all federal, state and local government web resources and services.